Location: Bessat
(45.8735°N, 1.9924°E)
Time: 02:51:44
(UTC+00:00)

Cosmos 2278 Rocket - Pass Details

Date: 11 May 2021
Orbit: 841 x 845 km, 71.0° (Epoch: 14 June)

Event Time Altitude Azimuth Distance (km) Brightness Sun altitude
Rises 21:59:53 0° 226° (SW) 3,387 5.2 -21.4°
Reaches altitude 10° 22:02:27 10° 233° (SW) 2,456 4.5 -21.7°
Maximum altitude 22:07:47 43° 304° (NW) 1,171 3.3 -22.1°
Drops below altitude 10° 22:13:11 10° 16° (NNE) 2,470 5.3 -22.5°
Sets 22:15:46 0° 23° (NNE) 3,408 6.0 -22.6°
